Time,TemperatureF,DewpointF,PressureIn,WindDirection,WindDirectionDegrees,WindSpeedMPH,WindSpeedGustMPH,Humidity,HourlyPrecipIn,Conditions,Clouds,dailyrainin,SoftwareType,DateUTC
2013-06-13 06:42:00,73.0,70.0,29.97,East,94,0.0,0.0,90,0.00,,,0.00,,2013-06-13 11:42:00,
2013-06-13 06:52:00,73.0,70.0,29.97,East,94,0.0,0.0,90,0.00,,,0.00,,2013-06-13 11:52:00,
2013-06-13 07:01:00,74.0,71.0,29.98,NNW,334,0.0,0.0,90,0.00,,,0.00,,2013-06-13 12:01:00,
2013-06-13 07:12:00,74.0,71.0,29.98,NW,325,0.0,0.0,90,0.00,,,0.00,,2013-06-13 12:12:00,
2013-06-13 07:22:00,74.0,71.0,29.99,East,86,0.0,0.0,90,0.00,,,0.00,,2013-06-13 12:22:00,
2013-06-13 07:35:00,74.0,71.0,29.99,East,86,0.0,0.0,90,0.00,,,0.00,,2013-06-13 12:35:00,
2013-06-13 07:43:00,74.0,71.0,29.99,SE,130,0.0,0.0,90,0.00,,,0.00,,2013-06-13 12:43:00,
2013-06-13 07:52:00,75.0,72.0,29.99,ESE,106,0.0,0.0,89,0.00,,,0.00,,2013-06-13 12:52:00,
2013-06-13 08:01:00,75.0,72.0,29.99,ESE,106,0.0,0.0,89,0.00,,,0.00,,2013-06-13 13:01:00,
2013-06-13 08:11:00,75.0,72.0,29.99,ESE,106,0.0,0.0,89,0.00,,,0.00,,2013-06-13 13:11:00,
2013-06-13 08:22:00,76.0,72.0,30.00,NE,45,1.0,7.0,87,0.00,,,0.00,,2013-06-13 13:22:00,
2013-06-13 08:33:00,76.0,72.0,30.00,NE,45,1.0,7.0,87,0.00,,,0.00,,2013-06-13 13:33:00,
2013-06-13 08:43:00,76.0,72.0,30.00,East,90,0.0,6.0,86,0.00,,,0.00,,2013-06-13 13:43:00,
2013-06-13 08:53:00,76.0,72.0,30.00,East,90,0.0,6.0,86,0.00,,,0.00,,2013-06-13 13:53:00,
2013-06-13 09:02:00,76.0,72.0,30.00,East,101,1.0,6.0,86,0.00,,,0.00,,2013-06-13 14:02:00,
2013-06-13 09:11:00,77.0,72.0,30.00,East,99,1.0,4.0,84,0.00,,,0.00,,2013-06-13 14:11:00,
2013-06-13 09:22:00,77.0,72.0,30.00,East,99,1.0,4.0,84,0.00,,,0.00,,2013-06-13 14:22:00,
2013-06-13 09:33:00,77.0,71.0,30.00,ESE,112,0.0,0.0,83,0.00,,,0.00,,2013-06-13 14:33:00,
2013-06-13 09:43:00,78.0,72.0,30.00,NE,55,0.0,4.0,82,0.00,,,0.00,,2013-06-13 14:43:00,
2013-06-13 09:53:00,79.0,72.0,30.00,SSE,157,2.0,6.0,79,0.00,,,0.00,,2013-06-13 14:53:00,
2013-06-13 10:02:00,79.0,72.0,30.00,SSE,157,2.0,6.0,79,0.00,,,0.00,,2013-06-13 15:02:00,
2013-06-13 10:12:00,79.0,71.0,30.00,ENE,76,0.0,4.0,77,0.00,,,0.00,,2013-06-13 15:12:00,
2013-06-13 10:22:00,80.0,73.0,30.01,East,92,1.0,10.0,79,0.00,,,0.00,,2013-06-13 15:22:00,
2013-06-13 10:33:00,80.0,73.0,30.01,East,92,1.0,10.0,79,0.00,,,0.00,,2013-06-13 15:33:00,
2013-06-13 10:43:00,80.0,73.0,30.01,East,92,1.0,10.0,79,0.00,,,0.00,,2013-06-13 15:43:00,
2013-06-13 10:53:00,80.0,72.0,30.01,East,79,2.0,9.0,77,0.00,,,0.00,,2013-06-13 15:53:00,
2013-06-13 11:02:00,80.0,72.0,30.01,East,79,2.0,9.0,77,0.00,,,0.00,,2013-06-13 16:02:00,
2013-06-13 11:12:00,81.0,73.0,30.01,NE,51,4.0,12.0,76,0.00,,,0.00,,2013-06-13 16:12:00,
2013-06-13 11:22:00,81.0,72.0,30.01,East,81,4.0,12.0,75,0.00,,,0.00,,2013-06-13 16:22:00,
2013-06-13 11:33:00,81.0,72.0,30.01,East,81,4.0,12.0,75,0.00,,,0.00,,2013-06-13 16:33:00,
2013-06-13 11:43:00,82.0,72.0,30.01,East,83,8.0,12.0,73,0.00,,,0.00,,2013-06-13 16:43:00,
2013-06-13 11:53:00,82.0,72.0,30.01,NNE,20,0.0,10.0,72,0.00,,,0.00,,2013-06-13 16:53:00,
2013-06-13 12:02:00,82.0,72.0,30.01,NNE,20,0.0,10.0,72,0.00,,,0.00,,2013-06-13 17:02:00,
2013-06-13 12:12:00,83.0,73.0,30.01,ENE,67,7.0,13.0,73,0.00,,,0.00,,2013-06-13 17:12:00,
2013-06-13 12:24:00,83.0,73.0,30.01,ENE,67,7.0,13.0,73,0.00,,,0.00,,2013-06-13 17:24:00,
2013-06-13 12:33:00,83.0,73.0,30.01,NE,36,6.0,13.0,73,0.00,,,0.00,,2013-06-13 17:33:00,
2013-06-13 12:43:00,83.0,74.0,30.01,NE,34,5.0,16.0,74,0.00,,,0.00,,2013-06-13 17:43:00,
2013-06-13 12:53:00,83.0,73.0,30.00,ENE,61,4.0,16.0,72,0.00,,,0.00,,2013-06-13 17:53:00,
2013-06-13 13:02:00,83.0,73.0,30.00,ENE,61,4.0,16.0,72,0.00,,,0.00,,2013-06-13 18:02:00,
2013-06-13 13:11:00,84.0,74.0,30.00,NE,56,8.0,15.0,71,0.00,,,0.00,,2013-06-13 18:11:00,
2013-06-13 13:22:00,84.0,73.0,30.00,NE,54,10.0,19.0,70,0.00,,,0.00,,2013-06-13 18:22:00,
2013-06-13 13:33:00,84.0,73.0,30.00,NE,54,10.0,19.0,70,0.00,,,0.00,,2013-06-13 18:33:00,
2013-06-13 13:43:00,85.0,73.0,29.99,ENE,66,7.0,16.0,68,0.00,,,0.00,,2013-06-13 18:43:00,
2013-06-13 13:52:00,85.0,73.0,29.99,ENE,66,7.0,16.0,68,0.00,,,0.00,,2013-06-13 18:52:00,
2013-06-13 14:01:00,85.0,73.0,29.98,ENE,65,10.0,20.0,67,0.00,,,0.00,,2013-06-13 19:01:00,
2013-06-13 14:11:00,86.0,73.0,29.99,ENE,76,5.0,16.0,66,0.00,,,0.00,,2013-06-13 19:11:00,
2013-06-13 14:22:00,86.0,73.0,29.98,ENE,74,8.0,18.0,66,0.00,,,0.00,,2013-06-13 19:22:00,
2013-06-13 14:33:00,86.0,73.0,29.98,ENE,74,8.0,18.0,66,0.00,,,0.00,,2013-06-13 19:33:00,
2013-06-13 14:43:00,86.0,73.0,29.98,East,89,8.0,16.0,66,0.00,,,0.00,,2013-06-13 19:43:00,
2013-06-13 14:53:00,86.0,73.0,29.98,East,89,8.0,16.0,66,0.00,,,0.00,,2013-06-13 19:53:00,
2013-06-13 15:02:00,86.0,73.0,29.98,East,90,7.0,13.0,66,0.00,,,0.00,,2013-06-13 20:02:00,
2013-06-13 15:11:00,86.0,73.0,29.97,East,101,5.0,13.0,66,0.00,,,0.00,,2013-06-13 20:11:00,
2013-06-13 15:22:00,85.0,72.0,29.97,SE,134,3.0,11.0,66,0.00,,,0.00,,2013-06-13 20:22:00,
2013-06-13 15:33:00,85.0,72.0,29.97,SE,134,3.0,11.0,66,0.00,,,0.00,,2013-06-13 20:33:00,
2013-06-13 15:44:00,84.0,72.0,29.97,East,94,8.0,11.0,67,0.00,,,0.00,,2013-06-13 20:44:00,
2013-06-13 15:53:00,82.0,71.0,29.96,East,90,11.0,14.0,70,0.00,,,0.00,,2013-06-13 20:53:00,
2013-06-13 16:02:00,82.0,71.0,29.96,East,90,11.0,14.0,70,0.00,,,0.00,,2013-06-13 21:02:00,
2013-06-13 16:11:00,81.0,72.0,29.96,East,84,8.0,13.0,73,0.00,,,0.00,,2013-06-13 21:11:00,
2013-06-13 16:22:00,81.0,73.0,29.96,East,80,5.0,13.0,76,0.00,,,0.00,,2013-06-13 21:22:00,
2013-06-13 16:34:00,81.0,73.0,29.96,East,80,5.0,13.0,76,0.00,,,0.00,,2013-06-13 21:34:00,
2013-06-13 16:43:00,80.0,72.0,29.95,East,80,2.0,14.0,77,0.00,,,0.00,,2013-06-13 21:43:00,
2013-06-13 16:52:00,80.0,72.0,29.95,East,80,2.0,14.0,77,0.00,,,0.00,,2013-06-13 21:52:00,
2013-06-13 17:02:00,80.0,72.0,29.95,East,88,6.0,12.0,77,0.00,,,0.00,,2013-06-13 22:02:00,
2013-06-13 17:11:00,80.0,72.0,29.96,East,99,4.0,11.0,78,0.00,,,0.00,,2013-06-13 22:11:00,
2013-06-13 17:22:00,80.0,72.0,29.96,ESE,111,2.0,9.0,78,0.00,,,0.00,,2013-06-13 22:22:00,
2013-06-13 17:33:00,80.0,72.0,29.96,ESE,111,2.0,9.0,78,0.00,,,0.00,,2013-06-13 22:33:00,
2013-06-13 17:43:00,80.0,72.0,29.96,East,82,4.0,13.0,78,0.00,,,0.00,,2013-06-13 22:43:00,
2013-06-13 17:52:00,80.0,72.0,29.96,East,82,4.0,13.0,78,0.00,,,0.00,,2013-06-13 22:52:00,
2013-06-13 18:02:00,80.0,72.0,29.96,East,82,3.0,11.0,78,0.00,,,0.00,,2013-06-13 23:02:00,
2013-06-13 18:11:00,80.0,72.0,29.96,ESE,106,6.0,14.0,78,0.00,,,0.00,,2013-06-13 23:11:00,
2013-06-13 18:22:00,80.0,72.0,29.96,East,84,8.0,13.0,78,0.00,,,0.00,,2013-06-13 23:22:00,
2013-06-13 18:32:00,80.0,72.0,29.96,East,84,8.0,13.0,78,0.00,,,0.00,,2013-06-13 23:32:00,
2013-06-13 18:43:00,79.0,71.0,29.96,East,91,8.0,16.0,77,0.00,,,0.00,,2013-06-13 23:43:00,
2013-06-13 18:52:00,79.0,71.0,29.96,East,88,5.0,13.0,76,0.00,,,0.00,,2013-06-13 23:52:00,
2013-06-13 19:01:00,79.0,71.0,29.96,East,88,5.0,13.0,76,0.00,,,0.00,,2013-06-14 00:01:00,
2013-06-13 19:12:00,78.0,70.0,29.96,East,84,5.0,11.0,77,0.00,,,0.00,,2013-06-14 00:12:00,
2013-06-13 19:22:00,78.0,70.0,29.97,East,95,1.0,10.0,76,0.00,,,0.00,,2013-06-14 00:22:00,
2013-06-13 19:34:00,78.0,70.0,29.97,East,95,1.0,10.0,76,0.00,,,0.00,,2013-06-14 00:34:00,
2013-06-13 19:43:00,78.0,70.0,29.96,East,80,3.0,9.0,77,0.00,,,0.00,,2013-06-14 00:43:00,
2013-06-13 19:53:00,78.0,71.0,29.97,East,94,2.0,9.0,79,0.00,,,0.00,,2013-06-14 00:53:00,
2013-06-13 20:01:00,78.0,71.0,29.97,East,94,2.0,9.0,79,0.00,,,0.00,,2013-06-14 01:01:00,
2013-06-13 20:11:00,77.0,70.0,29.97,East,90,2.0,8.0,80,0.00,,,0.00,,2013-06-14 01:11:00,
2013-06-13 20:22:00,77.0,71.0,29.97,East,97,2.0,8.0,82,0.00,,,0.00,,2013-06-14 01:22:00,
2013-06-13 20:32:00,77.0,71.0,29.97,East,97,2.0,8.0,82,0.00,,,0.00,,2013-06-14 01:32:00,
2013-06-13 20:43:00,77.0,71.0,29.97,East,91,0.0,8.0,83,0.00,,,0.00,,2013-06-14 01:43:00,
2013-06-13 20:52:00,77.0,71.0,29.97,East,91,0.0,8.0,83,0.00,,,0.00,,2013-06-14 01:52:00,
2013-06-13 21:02:00,77.0,72.0,29.97,ESE,106,0.0,8.0,84,0.00,,,0.00,,2013-06-14 02:02:00,
2013-06-13 21:11:00,76.0,71.0,29.97,East,93,0.0,7.0,85,0.00,,,0.00,,2013-06-14 02:11:00,
2013-06-13 21:22:00,76.0,71.0,29.97,East,92,0.0,1.0,85,0.00,,,0.00,,2013-06-14 02:22:00,
2013-06-13 21:32:00,76.0,71.0,29.97,East,92,0.0,1.0,85,0.00,,,0.00,,2013-06-14 02:32:00,
2013-06-13 21:43:00,76.0,71.0,29.97,East,83,1.0,6.0,85,0.00,,,0.00,,2013-06-14 02:43:00,
2013-06-13 21:52:00,76.0,71.0,29.97,East,83,3.0,6.0,85,0.00,,,0.00,,2013-06-14 02:52:00,
2013-06-13 22:02:00,76.0,71.0,29.97,East,83,3.0,6.0,85,0.00,,,0.00,,2013-06-14 03:02:00,
2013-06-13 22:12:00,76.0,71.0,29.97,East,94,0.0,6.0,85,0.00,,,0.00,,2013-06-14 03:12:00,
2013-06-13 22:22:00,76.0,72.0,29.97,East,89,0.0,6.0,86,0.00,,,0.00,,2013-06-14 03:22:00,
2013-06-13 22:34:00,76.0,72.0,29.97,East,89,0.0,6.0,86,0.00,,,0.00,,2013-06-14 03:34:00,
2013-06-13 22:43:00,75.0,71.0,29.97,East,95,1.0,6.0,86,0.00,,,0.00,,2013-06-14 03:43:00,
2013-06-13 22:53:00,75.0,71.0,29.97,East,95,1.0,6.0,86,0.00,,,0.00,,2013-06-14 03:53:00,
2013-06-13 23:01:00,75.0,71.0,29.97,East,95,1.0,6.0,86,0.00,,,0.00,,2013-06-14 04:01:00,
2013-06-13 23:12:00,75.0,71.0,29.97,East,95,1.0,6.0,86,0.00,,,0.00,,2013-06-14 04:12:00,
2013-06-13 23:22:00,75.0,71.0,29.97,East,95,1.0,6.0,86,0.00,,,0.00,,2013-06-14 04:22:00,